Waycross, GA

12:36 PM EDT on May 26, 2017 (GMT -0400)
Waycross-Ware County

Weather History for KAYS - March, 2013

Change the Weather History Date:

Sunday, March 3, 2013

  Actual Average (KAMG) Record (KAMG)
Temperature  
Mean Temperature 37 °F -  
Max Temperature 44 °F 70 °F 86 °F (1976)
Min Temperature 30 °F 47 °F 18 °F (1980)
Degree Days  
Heating Degree Days 28    
Moisture  
Dew Point 28 °F    
Average Humidity 65    
Maximum Humidity 86    
Minimum Humidity 49    
Precipitation  
Precipitation 0.00 in - - ()
Sea Level Pressure  
Sea Level Pressure 30.05 in    
Wind  
Wind Speed 9 mph (WNW)    
Max Wind Speed 17 mph    
Max Gust Speed 25 mph    
Visibility 10 miles    
Events      
Averages and records for this station are not official NWS values.
T = Trace of Precipitation, MM = Missing Value Source: NWS Daily Summary

Daily Weather History Graph

Daily Weather History Graph

Search for Another Location

Airport or City:

Trip Planner

Search our weather history database for the weather conditions in past years. The results will help you decide how hot, cold, wet, or windy it might be!

Date:

Astronomy

Mar. 03, 2013 Rise Set
Actual Time 6:53 AM EST 6:29 PM EST
Civil Twilight 6:29 AM EST 6:53 PM EST
Nautical Twilight 6:01 AM EST 7:21 PM EST
Astronomical Twilight 5:33 AM EST 7:50 PM EST
Moon No Moon Rise 10:33 AM EST (3/3)
Length of Visible Light 12h 24m
Length of Day
11h 35m
Waning Gibbous, 64% of the Moon is Illuminated
Mar 3
Waning Gibbous
Mar 4
Last Quarter
Mar 11
New
Mar 19
First Quarter
Mar 27
Full

Hourly Weather History & Observations

Time (EST) Temp. Windchill Dew Point Humidity Pressure Visibility Wind Dir Wind Speed Gust Speed Precip Events Conditions
12:15 AM 41.0 °F 36.4 °F 30.2 °F 65% 30.02 in 10.0 mi WNW 6.9 mph - N/A   Unknown
12:35 AM 41.0 °F 35.2 °F 30.2 °F 65% 30.01 in 10.0 mi WNW 9.2 mph - N/A   Unknown
12:55 AM 41.0 °F 35.2 °F 30.2 °F 65% 30.01 in 10.0 mi NW 9.2 mph - N/A   Unknown
1:15 AM 41.0 °F 34.7 °F 28.4 °F 61% 30.00 in 10.0 mi NW 10.4 mph - N/A   Unknown
1:35 AM 39.2 °F 34.2 °F 28.4 °F 65% 30.00 in 10.0 mi WNW 6.9 mph - N/A   Unknown
1:55 AM 39.2 °F 34.2 °F 28.4 °F 65% 30.01 in 10.0 mi West 6.9 mph - N/A   Unknown
2:15 AM 39.2 °F 34.2 °F 28.4 °F 65% 30.01 in 10.0 mi WNW 6.9 mph - N/A   Unknown
2:35 AM 39.2 °F 33.6 °F 28.4 °F 65% 30.00 in 10.0 mi WNW 8.1 mph - N/A   Unknown
2:55 AM 39.2 °F 32.0 °F 28.4 °F 65% 30.00 in 10.0 mi NW 11.5 mph - N/A   Unknown
3:15 AM 39.2 °F 35.0 °F 28.4 °F 65% 30.00 in 10.0 mi WNW 5.8 mph - N/A   Unknown
3:35 AM 39.2 °F 33.6 °F 28.4 °F 65% 30.01 in 10.0 mi WNW 8.1 mph - N/A   Unknown
3:55 AM 39.2 °F 31.6 °F 28.4 °F 65% 30.00 in 10.0 mi NW 12.7 mph - N/A   Unknown
4:15 AM 37.4 °F 30.3 °F 28.4 °F 70% 30.00 in 10.0 mi WNW 10.4 mph - N/A   Unknown
4:35 AM 37.4 °F 30.8 °F 28.4 °F 70% 30.00 in 10.0 mi WNW 9.2 mph - N/A   Unknown
4:55 AM 37.4 °F 31.4 °F 28.4 °F 70% 30.01 in 10.0 mi WNW 8.1 mph 16.1 mph N/A   Unknown
5:15 AM 37.4 °F 32.1 °F 28.4 °F 70% 30.01 in 10.0 mi WNW 6.9 mph - N/A   Unknown
5:35 AM 37.4 °F 32.1 °F 28.4 °F 70% 30.02 in 10.0 mi NW 6.9 mph - N/A   Unknown
5:55 AM 35.6 °F 30.7 °F 28.4 °F 75% 30.02 in 10.0 mi WNW 5.8 mph - N/A   Unknown
6:15 AM 35.6 °F 29.2 °F 28.4 °F 75% 30.02 in 10.0 mi WNW 8.1 mph - N/A   Unknown
6:35 AM 35.6 °F 29.2 °F 28.4 °F 75% 30.02 in 10.0 mi WNW 8.1 mph - N/A   Unknown
6:55 AM 33.8 °F 27.7 °F 28.4 °F 81% 30.03 in 10.0 mi WNW 6.9 mph - N/A   Unknown
7:15 AM 33.8 °F 27.7 °F 28.4 °F 81% 30.03 in 10.0 mi West 6.9 mph - N/A   Unknown
7:35 AM 35.6 °F 29.9 °F 28.4 °F 75% 30.04 in 10.0 mi WNW 6.9 mph - N/A   Unknown
7:55 AM 37.4 °F 30.8 °F 30.2 °F 75% 30.04 in 10.0 mi WNW 9.2 mph - N/A   Unknown
8:15 AM 37.4 °F 30.8 °F 30.2 °F 75% 30.04 in 10.0 mi NW 9.2 mph - N/A   Unknown
8:35 AM 37.4 °F 29.3 °F 30.2 °F 75% 30.05 in 10.0 mi NW 12.7 mph - N/A   Unknown
8:55 AM 39.2 °F 33.0 °F 28.4 °F 65% 30.06 in 10.0 mi NNW 9.2 mph - N/A   Unknown
9:15 AM 39.2 °F 31.6 °F 28.4 °F 65% 30.06 in 10.0 mi NW 12.7 mph - N/A   Unknown
9:35 AM 39.2 °F 32.5 °F 30.2 °F 70% 30.06 in 10.0 mi NNW 10.4 mph - N/A   Unknown
9:55 AM 39.2 °F 33.0 °F 30.2 °F 70% 30.06 in 10.0 mi NW 9.2 mph - N/A   Unknown
10:15 AM 39.2 °F 33.6 °F 30.2 °F 70% 30.07 in 10.0 mi NW 8.1 mph - N/A   Unknown
10:35 AM 39.2 °F 32.5 °F 30.2 °F 70% 30.07 in 10.0 mi NW 10.4 mph - N/A   Unknown
10:55 AM 39.2 °F 32.5 °F 30.2 °F 70% 30.07 in 10.0 mi WNW 10.4 mph 16.1 mph N/A   Unknown
11:15 AM 39.2 °F 31.2 °F 30.2 °F 70% 30.07 in 10.0 mi WNW 13.8 mph - N/A   Unknown
11:35 AM 41.0 °F 34.3 °F 28.4 °F 61% 30.06 in 10.0 mi NW 11.5 mph 18.4 mph N/A   Unknown
11:55 AM 41.0 °F 34.7 °F 26.6 °F 57% 30.06 in 10.0 mi WNW 10.4 mph - N/A   Unknown
12:15 PM 41.0 °F 32.8 °F 26.6 °F 57% 30.06 in 10.0 mi NW 16.1 mph 20.7 mph N/A   Unknown
12:35 PM 42.8 °F 36.6 °F 26.6 °F 53% 30.05 in 10.0 mi WNW 11.5 mph 19.6 mph N/A   Unknown
12:55 PM 42.8 °F 35.1 °F 26.6 °F 53% 30.04 in 10.0 mi West 16.1 mph 21.9 mph N/A   Unknown
1:15 PM 42.8 °F 35.8 °F 24.8 °F 49% 30.04 in 10.0 mi West 13.8 mph 19.6 mph N/A   Unknown
1:35 PM 42.8 °F 34.8 °F 26.6 °F 53% 30.03 in 10.0 mi West 17.3 mph 21.9 mph N/A   Unknown
1:55 PM 42.8 °F 36.2 °F 26.6 °F 53% 30.03 in 10.0 mi WNW 12.7 mph 18.4 mph N/A   Unknown
2:15 PM 42.8 °F 36.2 °F 26.6 °F 53% 30.02 in 10.0 mi West 12.7 mph 20.7 mph N/A   Unknown
2:35 PM 42.8 °F 34.8 °F 26.6 °F 53% 30.02 in 10.0 mi WNW 17.3 mph 20.7 mph N/A   Overcast
2:55 PM 42.8 °F 36.6 °F 26.6 °F 53% 30.02 in 10.0 mi WNW 11.5 mph 20.7 mph N/A   Overcast
3:15 PM 42.8 °F 36.2 °F 26.6 °F 53% 30.02 in 10.0 mi West 12.7 mph 21.9 mph N/A   Overcast
3:35 PM 42.8 °F 35.4 °F 24.8 °F 49% 30.02 in 10.0 mi West 15.0 mph 25.3 mph N/A   Overcast
3:55 PM 42.8 °F 36.2 °F 24.8 °F 49% 30.02 in 10.0 mi WNW 12.7 mph 20.7 mph N/A   Scattered Clouds
4:15 PM 42.8 °F 36.6 °F 24.8 °F 49% 30.02 in 10.0 mi WNW 11.5 mph 25.3 mph N/A   Scattered Clouds
4:35 PM 42.8 °F 37.0 °F 24.8 °F 49% 30.02 in 10.0 mi West 10.4 mph 18.4 mph N/A   Scattered Clouds
4:55 PM 44.6 °F 38.1 °F 26.6 °F 49% 30.02 in 10.0 mi WNW 13.8 mph 18.4 mph N/A   Mostly Cloudy
5:15 PM 44.6 °F 39.7 °F 26.6 °F 49% 30.03 in 10.0 mi West 9.2 mph 17.3 mph N/A   Mostly Cloudy
5:35 PM 42.8 °F 36.6 °F 26.6 °F 53% 30.04 in 10.0 mi NW 11.5 mph - N/A   Scattered Clouds
5:55 PM 42.8 °F 37.0 °F 26.6 °F 53% 30.05 in 10.0 mi WNW 10.4 mph 19.6 mph N/A   Scattered Clouds
6:15 PM 41.0 °F 34.7 °F 26.6 °F 57% 30.06 in 10.0 mi WNW 10.4 mph 16.1 mph N/A   Scattered Clouds
6:35 PM 39.2 °F 33.0 °F 26.6 °F 61% 30.06 in 10.0 mi WNW 9.2 mph - N/A   Unknown
6:55 PM 39.2 °F 35.9 °F 26.6 °F 61% 30.06 in 10.0 mi West 4.6 mph - N/A   Unknown
7:15 PM 37.4 °F 34.9 °F 26.6 °F 65% 30.07 in 10.0 mi West 3.5 mph - N/A   Unknown
7:35 PM 37.4 °F 34.9 °F 26.6 °F 65% 30.07 in 10.0 mi West 3.5 mph - N/A   Unknown
7:55 PM 35.6 °F 32.8 °F 26.6 °F 70% 30.08 in 10.0 mi WSW 3.5 mph - N/A   Unknown
8:15 PM 35.6 °F 31.7 °F 26.6 °F 70% 30.08 in 10.0 mi WSW 4.6 mph - N/A   Unknown
8:35 PM 35.6 °F 32.8 °F 26.6 °F 70% 30.09 in 10.0 mi WSW 3.5 mph - N/A   Unknown
8:55 PM 35.6 °F 32.8 °F 26.6 °F 70% 30.10 in 10.0 mi West 3.5 mph - N/A   Unknown
9:15 PM 33.8 °F 30.8 °F 26.6 °F 75% 30.11 in 10.0 mi WSW 3.5 mph - N/A   Unknown
9:35 PM 33.8 °F 30.8 °F 26.6 °F 75% 30.11 in 10.0 mi WSW 3.5 mph - N/A   Unknown
9:55 PM 33.8 °F 30.8 °F 26.6 °F 75% 30.11 in 10.0 mi West 3.5 mph - N/A   Unknown
10:15 PM 33.8 °F 30.8 °F 26.6 °F 75% 30.11 in 10.0 mi West 3.5 mph - N/A   Unknown
10:35 PM 33.8 °F 30.8 °F 26.6 °F 75% 30.12 in 10.0 mi West 3.5 mph - N/A   Unknown
10:55 PM 32.0 °F 28.7 °F 26.6 °F 80% 30.12 in 10.0 mi West 3.5 mph - N/A   Unknown
11:15 PM 32.0 °F 28.7 °F 26.6 °F 80% 30.12 in 10.0 mi WSW 3.5 mph - N/A   Unknown
11:35 PM 30.2 °F 25.4 °F 26.6 °F 86% 30.11 in 10.0 mi WSW 4.6 mph - N/A   Unknown
11:55 PM 30.2 °F 25.4 °F 26.6 °F 86% 30.12 in 10.0 mi WSW 4.6 mph - N/A   Unknown